• In Hungary
  • List of Countries
  • For 7 days
  • Water Temperature
  • Satellite Maps
  • Weather Map
  • News
  • Weather Widgets
  • user-avatar
    Login

    Hourly Weather Samos

    Today, 23 September, Sunday

    Time Temperature Precipitation Wind Pressure Humidity
    00:00 +20°C° 0 mm 3 mps 722 mmHg 79%
    01:00 +19°C° 0 mm 3 mps 722 mmHg 78%
    02:00 +19°C° 0 mm 3 mps 722 mmHg 78%
    03:00 +19°C° 0 mm 3 mps 722 mmHg 77%
    04:00 +19°C° 0 mm 3 mps 722 mmHg 75%
    05:00 +19°C° 0 mm 3 mps 722 mmHg 74%
    06:00 +20°C° 0 mm 3 mps 722 mmHg 66%
    07:00 +22°C° 0 mm 3 mps 722 mmHg 59%
    08:00 +24°C° 0 mm 3 mps 722 mmHg 51%
    09:00 +27°C° 0 mm 3 mps 722 mmHg 44%
    10:00 +30°C° 0 mm 3 mps 723 mmHg 36%
    11:00 +33°C° 0 mm 3 mps 723 mmHg 29%
    12:00 +34°C° 0 mm 3 mps 723 mmHg 27%
    13:00 +35°C° 0 mm 4 mps 723 mmHg 25%
    14:00 +35°C° 0 mm 4 mps 723 mmHg 24%
    15:00 +34°C° 0 mm 5 mps 722 mmHg 25%
    16:00 +33°C° 0 mm 5 mps 722 mmHg 27%
    17:00 +32°C° 0 mm 5 mps 722 mmHg 29%
    18:00 +29°C° 0 mm 5 mps 722 mmHg 35%
    19:00 +26°C° 0 mm 4 mps 722 mmHg 40%
    20:00 +23°C° 0 mm 4 mps 722 mmHg 45%
    21:00 +23°C° 0 mm 4 mps 722 mmHg 45%
    22:00 +22°C° 0 mm 3 mps 722 mmHg 44%
    23:00 +22°C° 0 mm 3 mps 722 mmHg 44%

    Tomorrow, 24 September, Monday

    Time Temperature Precipitation Wind Pressure Humidity
    00:00 +21°C° 0 mm 3 mps 722 mmHg 44%
    01:00 +21°C° 0 mm 3 mps 722 mmHg 44%
    02:00 +20°C° 0 mm 2 mps 722 mmHg 45%
    03:00 +20°C° 0 mm 2 mps 721 mmHg 45%
    04:00 +20°C° 0 mm 2 mps 721 mmHg 46%
    05:00 +19°C° 0 mm 2 mps 721 mmHg 46%
    06:00 +21°C° 0 mm 2 mps 721 mmHg 42%
    07:00 +24°C° 0 mm 1 mps 721 mmHg 38%
    08:00 +26°C° 0 mm 1 mps 721 mmHg 34%
    09:00 +28°C° 0 mm 1 mps 721 mmHg 30%
    10:00 +31°C° 0 mm 2 mps 721 mmHg 25%
    11:00 +34°C° 0 mm 2 mps 721 mmHg 21%
    12:00 +34°C° 0 mm 2 mps 721 mmHg 21%
    13:00 +35°C° 0 mm 3 mps 721 mmHg 20%
    14:00 +35°C° 0 mm 3 mps 720 mmHg 20%
    15:00 +34°C° 0 mm 3 mps 720 mmHg 23%
    16:00 +31°C° 0 mm 3 mps 720 mmHg 26%
    17:00 +30°C° 0 mm 3 mps 720 mmHg 30%
    18:00 +27°C° 0 mm 3 mps 720 mmHg 38%
    19:00 +25°C° 0 mm 2 mps 720 mmHg 47%
    20:00 +21°C° 0 mm 2 mps 720 mmHg 55%
    21:00 +22°C° 0 mm 1 mps 720 mmHg 57%
    22:00 +21°C° 0 mm 1 mps 720 mmHg 60%
    23:00 +21°C° 0 mm 1 mps 720 mmHg 62%

    Day after tomorrow, 25 September, Tuesday

    Time Temperature Precipitation Wind Pressure Humidity
    00:00 +20°C° 0 mm 1 mps 720 mmHg 62%
    01:00 +20°C° 0 mm 1 mps 720 mmHg 61%
    02:00 +19°C° 0 mm 2 mps 720 mmHg 60%
    03:00 +19°C° 0 mm 2 mps 720 mmHg 59%
    04:00 +19°C° 0 mm 3 mps 720 mmHg 58%
    05:00 +18°C° 0 mm 3 mps 719 mmHg 57%
    06:00 +20°C° 0 mm 4 mps 720 mmHg 53%
    07:00 +21°C° 0 mm 5 mps 720 mmHg 49%
    08:00 +22°C° 0 mm 5 mps 720 mmHg 45%
    09:00 +24°C° 0 mm 6 mps 720 mmHg 41%
    10:00 +27°C° 0 mm 6 mps 721 mmHg 36%
    11:00 +29°C° 0 mm 6 mps 721 mmHg 32%
    12:00 +30°C° 0 mm 7 mps 721 mmHg 32%
    13:00 +31°C° 0 mm 8 mps 721 mmHg 32%
    14:00 +32°C° 0 mm 9 mps 721 mmHg 31%
    15:00 +29°C° 0 mm 9 mps 721 mmHg 36%
    16:00 +28°C° 0 mm 10 mps 721 mmHg 40%
    17:00 +26°C° 0 mm 10 mps 721 mmHg 44%
    18:00 +23°C° 0 mm 11 mps 721 mmHg 51%
    19:00 +19°C° 0 mm 11 mps 721 mmHg 58%
    20:00 +17°C° 0 mm 11 mps 722 mmHg 65%
    21:00 +16°C° 0 mm 11 mps 722 mmHg 68%
    22:00 +15°C° 0 mm 12 mps 722 mmHg 70%
    23:00 +14°C° 0 mm 12 mps 722 mmHg 73%

    26 September, Wednesday

    Time Temperature Precipitation Wind Pressure Humidity
    00:00 +14°C° 0 mm 12 mps 722 mmHg 73%
    01:00 +13°C° 0 mm 12 mps 722 mmHg 74%
    02:00 +13°C° 0 mm 13 mps 722 mmHg 74%
    03:00 +13°C° 0 mm 13 mps 722 mmHg 73%
    04:00 +12°C° 0 mm 13 mps 722 mmHg 73%
    05:00 +12°C° 0 mm 13 mps 722 mmHg 72%
    06:00 +13°C° 0 mm 13 mps 722 mmHg 67%
    07:00 +13°C° 0 mm 13 mps 723 mmHg 62%
    08:00 +14°C° 0 mm 13 mps 723 mmHg 58%
    09:00 +17°C° 0 mm 13 mps 723 mmHg 50%
    10:00 +18°C° 0 mm 13 mps 723 mmHg 43%
    11:00 +20°C° 0 mm 14 mps 723 mmHg 36%
    12:00 +22°C° 0 mm 14 mps 723 mmHg 34%
    13:00 +22°C° 0 mm 14 mps 723 mmHg 32%
    14:00 +23°C° 0 mm 14 mps 722 mmHg 30%
    15:00 +22°C° 0 mm 15 mps 722 mmHg 32%
    16:00 +20°C° 0 mm 15 mps 722 mmHg 34%
    17:00 +18°C° 0 mm 15 mps 722 mmHg 36%
    18:00 +17°C° 0 mm 15 mps 722 mmHg 41%
    19:00 +14°C° 0 mm 15 mps 722 mmHg 45%
    20:00 +11°C° 0 mm 15 mps 722 mmHg 49%
    21:00 +11°C° 0 mm 15 mps 722 mmHg 52%
    22:00 +10°C° 0 mm 15 mps 722 mmHg 54%
    23:00 +10°C° 0 mm 15 mps 721 mmHg 56%

    27 September, Thursday

    Time Temperature Precipitation Wind Pressure Humidity
    00:00 +10°C° 0 mm 15 mps 721 mmHg 56%
    01:00 +10°C° 0 mm 15 mps 720 mmHg 55%
    02:00 +10°C° 0 mm 15 mps 720 mmHg 55%
    03:00 +10°C° 0.1 mm 15 mps 719 mmHg 58%
    04:00 +10°C° 0.1 mm 15 mps 719 mmHg 61%
    05:00 +10°C° 0.1 mm 15 mps 718 mmHg 63%
    06:00 +10°C° 0.6 mm 15 mps 718 mmHg 66%
    07:00 +9°C° 0.6 mm 15 mps 718 mmHg 69%
    08:00 +9°C° 0.6 mm 15 mps 717 mmHg 72%
    09:00 +12°C° 0.5 mm 14 mps 717 mmHg 64%
    10:00 +14°C° 0.5 mm 14 mps 717 mmHg 57%
    11:00 +18°C° 0.5 mm 14 mps 717 mmHg 50%
    12:00 +18°C° 1.3 mm 13 mps 716 mmHg 49%
    13:00 +19°C° 1.3 mm 12 mps 716 mmHg 48%
    14:00 +19°C° 1.3 mm 11 mps 715 mmHg 47%
    15:00 +18°C° 1 mm 11 mps 715 mmHg 54%
    16:00 +17°C° 1 mm 10 mps 715 mmHg 61%
    17:00 +16°C° 1 mm 10 mps 715 mmHg 68%
    18:00 +16°C° 1.1 mm 9 mps 716 mmHg 72%
    19:00 +15°C° 1.1 mm 9 mps 716 mmHg 76%
    20:00 +13°C° 1.1 mm 8 mps 716 mmHg 80%
    21:00 +13°C° 0.2 mm 8 mps 716 mmHg 80%
    22:00 +13°C° 0.2 mm 8 mps 716 mmHg 80%
    23:00 +12°C° 0.2 mm 8 mps 717 mmHg 80%

    28 September, Friday

    Time Temperature Precipitation Wind Pressure Humidity
    00:00 +12°C° 0.3 mm 7 mps 717 mmHg 80%
    01:00 +12°C° 0.3 mm 7 mps 717 mmHg 80%
    02:00 +12°C° 0.3 mm 7 mps 717 mmHg 80%
    03:00 +12°C° 0.3 mm 7 mps 717 mmHg 80%
    04:00 +12°C° 0.3 mm 7 mps 717 mmHg 79%
    05:00 +11°C° 0.3 mm 7 mps 717 mmHg 79%
    06:00 +12°C° 0.3 mm 7 mps 717 mmHg 75%
    07:00 +14°C° 0.3 mm 7 mps 717 mmHg 71%
    08:00 +15°C° 0.3 mm 7 mps 717 mmHg 68%
    09:00 +17°C° 0.5 mm 6 mps 718 mmHg 60%
    10:00 +20°C° 0.5 mm 6 mps 718 mmHg 52%
    11:00 +22°C° 0.5 mm 6 mps 718 mmHg 44%
    12:00 +22°C° 1.5 mm 7 mps 718 mmHg 46%
    13:00 +22°C° 1.5 mm 7 mps 718 mmHg 48%
    14:00 +22°C° 1.5 mm 7 mps 717 mmHg 50%
    15:00 +21°C° 1.3 mm 7 mps 717 mmHg 55%
    16:00 +20°C° 1.3 mm 7 mps 717 mmHg 59%
    17:00 +20°C° 1.3 mm 8 mps 717 mmHg 63%
    18:00 +18°C° 0.7 mm 7 mps 717 mmHg 65%
    19:00 +17°C° 0.7 mm 7 mps 717 mmHg 68%
    20:00 +17°C° 0.7 mm 6 mps 718 mmHg 71%
    21:00 +16°C° 0.8 mm 6 mps 718 mmHg 72%
    22:00 +16°C° 0.8 mm 6 mps 718 mmHg 72%
    23:00 +16°C° 0.8 mm 7 mps 718 mmHg 73%
    Show more